Theta_e
286 286 286 286 285 285 285 284 283 282 281 281 281 281 280 280 279 279 279 279 279 280 280 280 280 280 280 281 281 281 282 283 285 284 284 284 284 285 285 285 285 285 285
286 286 286 286 286 285 285 285 284 282 281 281 280 280 280 279 279 278 278 278 278 278 278 278 278 278 278 279 280 280 280 281 281 282 282 283 283 283 284 284 284 285 285
286 286 285 285 285 285 284 284 284 283 282 281 280 279 279 278 278 277 276 277 277 277 277 277 277 276 276 277 277 277 278 279 280 280 281 281 281 282 282 283 284 285 285
286 286 285 285 285 284 284 284 283 282 280 279 279 279 278 278 277 276 276 276 277 276 276 276 275 275 275 275 275 275 276 277 277 278 279 280 281 281 281 282 283 284 285
285 285 285 285 285 284 284 283 282 281 280 279 278 278 278 277 276 276 275 276 276 275 275 274 274 274 273 273 273 274 274 275 275 276 277 277 278 279 280 281 281 281 282
285 285 285 285 285 284 283 282 281 280 279 278 277 277 276 276 275 274 274 275 274 274 274 273 273 273 273 272 272 273 273 274 274 275 275 275 276 277 277 278 279 279 280
286 286 285 285 284 283 282 281 280 279 277 276 276 276 275 275 274 273 273 273 274 273 273 272 272 272 272 272 272 272 273 273 274 274 275 275 275 275 275 276 276 277 277
285 285 285 284 284 282 281 280 279 277 276 275 275 275 274 274 273 272 272 273 273 272 272 272 272 272 272 272 273 273 273 274 274 274 274 275 275 275 275 276 277 277 277
286 286 285 284 283 281 280 278 277 276 275 275 274 274 273 273 272 271 272 272 272 272 272 272 272 272 272 273 274 275 275 275 274 275 275 276 276 276 277 277 277 278 278
287 286 285 284 282 280 278 277 276 275 275 274 273 272 272 272 272 271 271 272 273 273 273 273 273 273 274 275 275 275 276 276 276 276 276 276 276 276 276 276 276 277 277
286 285 283 282 280 278 277 276 275 274 273 272 272 271 272 272 271 271 271 272 273 273 274 274 273 274 275 275 276 275 275 275 275 275 275 275 276 276 276 276 276 276 276
284 283 281 279 278 277 275 274 274 272 271 270 270 270 269 270 270 270 271 272 273 273 273 274 274 274 273 273 272 272 273 273 272 272 273 273 274 275 275 275 275 275 275
282 281 279 277 276 274 273 273 272 271 269 269 269 269 269 269 269 270 270 271 273 273 274 273 272 270 270 269 269 270 269 270 270 270 271 272 272 272 273 273 273 274 274
281 278 276 275 274 273 272 272 271 269 269 268 268 269 269 270 270 270 271 272 273 273 273 270 269 268 267 267 267 267 267 268 268 268 269 270 270 270 271 271 272 273 273
278 276 275 274 273 272 272 271 270 269 269 268 268 269 270 270 271 271 272 273 273 273 271 269 267 267 267 267 267 267 267 267 267 268 268 268 268 269 270 271 271 271 273
276 274 273 272 271 270 269 269 269 268 269 269 270 271 271 271 272 271 272 272 273 270 268 266 266 266 266 266 266 266 266 266 267 266 267 267 268 269 269 270 271 272 272
275 273 271 270 269 268 267 267 267 267 267 266 267 268 269 270 269 270 271 271 269 267 265 264 264 265 265 265 265 266 266 266 265 266 266 267 267 268 269 270 272 273 273
272 271 271 269 268 267 266 265 265 265 265 265 267 266 265 266 268 268 269 269 265 264 263 263 263 264 264 264 264 265 265 265 265 265 265 266 267 268 269 270 271 272 273
270 269 268 267 266 265 264 263 263 263 262 262 262 265 264 264 264 266 267 264 262 262 262 262 262 262 262 263 263 263 263 263 264 264 265 267 268 269 269 269 270 271 272
268 267 266 265 264 264 262 262 262 262 261 261 261 262 263 262 263 263 263 263 262 261 261 261 261 261 261 261 261 262 262 263 264 264 265 266 268 268 268 269 270 271 272
266 265 264 263 262 262 261 261 261 261 261 260 260 261 261 262 264 262 262 262 262 262 261 261 261 261 261 260 261 261 262 263 263 264 265 266 268 268 268 268 269 270 272
264 263 263 262 261 260 260 260 260 259 259 259 260 260 262 262 261 261 261 262 262 261 261 261 261 261 261 261 261 260 261 263 264 264 264 265 267 267 267 268 269 270 271
263 262 262 262 261 260 260 259 259 259 259 259 259 259 260 260 260 261 261 261 261 261 261 261 261 262 262 262 263 262 262 265 265 265 265 265 267 267 267 268 268 269 270
262 261 260 260 259 259 259 259 259 259 259 259 259 259 259 259 260 261 260 260 260 261 261 261 261 261 262 263 264 264 265 266 266 267 267 267 267 267 267 267 267 268 268
261 261 260 259 259 259 259 260 260 259 259 259 259 259 259 259 260 260 260 260 261 261 261 261 262 262 262 263 264 264 265 266 267 268 267 268 268 268 267 267 267 267 267
261 260 260 259 259 259 259 259 259 259 259 259 259 258 258 259 259 260 260 260 260 260 261 261 261 262 262 263 264 265 266 266 267 268 268 268 268 267 268 267 267 267 267
Wind_Speed
16 16 16 14 13 11 10 9 6 5 5 6 9 11 11 12 13 13 11 10 12 13 13 14 16 16 17 17 18 19 21 20 21 28 28 30 32 31 29 27 29 30 35
17 17 15 14 12 10 8 7 4 2 4 7 9 10 12 13 14 14 12 12 13 15 15 15 17 17 18 18 19 21 23 23 25 28 31 28 30 30 31 31 30 30 30
20 18 16 14 12 9 8 5 2 1 4 6 8 10 12 13 14 13 13 14 14 15 16 17 19 19 21 20 21 23 24 25 26 27 34 29 28 28 32 30 29 28 28
21 18 16 14 12 10 8 6 4 3 4 6 9 11 12 14 13 13 15 14 15 15 16 17 19 19 21 22 24 24 24 25 25 26 29 31 27 25 25 28 29 25 24
22 19 18 15 14 13 11 9 6 5 6 8 9 11 12 13 12 14 14 15 17 18 17 17 18 20 22 22 23 24 26 26 26 26 27 29 27 24 22 21 25 27 30
22 22 19 18 18 16 14 11 10 9 9 9 10 11 12 13 14 13 14 16 17 18 19 19 19 20 21 22 23 24 25 27 27 25 26 26 29 27 26 26 25 24 16
29 28 25 22 21 19 17 14 13 11 11 11 11 12 13 13 15 13 14 16 18 18 19 20 21 20 22 23 24 25 25 25 27 30 30 28 30 28 27 27 27 28 30
32 30 26 25 23 20 18 16 14 12 12 11 12 13 14 15 15 14 14 16 17 17 18 20 22 24 24 26 28 29 29 28 28 29 31 32 32 32 31 32 33 34 33
30 29 27 26 24 21 18 15 14 13 13 13 14 14 15 16 14 13 14 15 16 18 19 20 22 26 26 28 32 32 31 31 32 33 34 35 35 34 32 31 28 25 24
29 29 26 25 23 20 17 15 14 13 14 14 14 16 16 16 13 14 13 14 18 19 21 22 22 25 29 30 33 33 35 33 32 34 35 35 35 34 31 31 29 27 26
25 24 24 23 20 18 16 15 14 14 14 15 17 16 16 14 14 13 12 14 17 21 23 24 24 26 30 31 32 34 33 39 35 32 29 27 26 25 24 26 27 28 28
20 21 22 21 18 17 16 15 14 14 15 15 15 15 12 12 13 12 13 14 17 21 23 24 25 28 34 34 33 31 30 30 27 24 23 24 24 24 24 24 25 28 31
20 22 20 18 18 17 15 14 14 14 14 12 11 11 11 10 12 13 13 16 18 20 22 22 26 29 27 24 22 25 22 19 20 20 21 22 23 24 25 26 27 29 32
21 21 20 19 18 16 15 16 15 14 12 11 10 11 12 12 12 11 14 17 17 21 16 19 23 22 18 18 19 19 18 18 19 21 21 23 24 24 23 23 24 25 25
21 21 19 18 18 16 18 17 16 16 15 12 11 13 14 15 13 15 19 19 21 17 22 25 20 17 18 18 18 18 19 19 19 19 21 23 23 23 24 23 22 24 23
22 21 19 18 17 17 15 14 17 16 13 15 16 17 18 20 19 19 19 19 18 16 16 14 15 15 16 17 19 21 19 20 20 22 22 21 22 24 25 25 24 23 24
21 17 16 17 15 13 12 12 12 11 13 14 13 13 15 17 18 18 18 18 14 16 10 12 13 13 15 16 17 19 22 21 22 21 22 23 23 24 24 25 25 22 23
18 17 16 14 14 13 13 12 11 11 11 12 14 13 14 14 15 16 16 15 15 12 11 12 13 13 15 16 17 19 22 23 23 23 24 23 23 24 25 24 24 24 23
15 15 15 14 14 13 12 11 11 12 12 12 14 15 13 11 12 13 11 12 12 13 12 14 14 13 15 16 17 19 20 22 25 26 25 24 25 24 25 24 25 26 27
15 15 13 13 12 13 12 11 12 13 13 13 12 13 12 11 9 9 12 13 14 14 14 14 16 16 16 16 17 18 21 21 23 23 24 25 25 25 25 25 25 24 24
12 13 14 13 13 12 12 12 12 13 14 14 15 14 13 14 13 12 15 16 16 17 18 17 18 18 17 17 17 17 19 21 24 24 23 26 26 26 25 25 25 25 25
11 11 11 13 12 11 12 12 13 13 14 15 15 15 12 13 14 16 18 18 18 18 18 19 20 19 18 18 18 17 19 24 26 26 25 27 26 25 24 24 24 23 22
8 8 9 11 12 13 14 14 14 14 14 15 14 15 14 14 15 17 19 19 18 18 17 18 19 20 19 19 19 19 21 23 25 27 27 26 25 24 23 21 21 21 19
6 7 8 9 9 10 11 13 13 15 15 15 14 14 14 15 17 19 20 19 18 18 18 19 19 19 19 19 19 20 21 21 23 23 22 23 24 23 21 19 18 19 19
7 9 10 10 10 11 12 13 14 14 14 14 14 14 14 17 19 20 19 19 19 19 20 19 20 19 19 19 19 18 18 17 18 19 18 20 19 19 18 17 18 16 17
9 10 10 10 11 12 13 14 14 14 14 14 14 14 17 19 20 20 20 19 20 21 21 21 20 19 19 20 18 17 16 15 15 17 18 16 15 15 16 16 18 16 16
Wind_Direction
164 160 154 149 142 133 126 117 108 81 52 22 11 1 356 354 349 347 343 337 335 328 324 320 316 314 310 306 301 296 290 287 285 289 287 291 293 295 295 294 294 293 293
175 172 168 166 158 152 145 138 115 64 19 4 356 351 348 345 343 340 339 333 328 325 322 320 315 315 309 305 300 296 291 289 288 291 291 291 291 295 296 295 292 289 288
185 182 181 180 176 176 169 161 169 328 339 336 341 342 340 339 338 335 329 327 323 320 319 317 315 314 310 309 305 300 297 294 290 288 289 290 289 292 294 294 293 290 289
193 192 194 193 193 191 195 208 231 284 312 326 327 330 331 331 331 326 326 322 318 314 313 310 309 308 307 307 305 301 300 298 296 292 289 292 292 293 290 293 291 290 293
199 200 204 204 205 210 214 229 245 268 292 307 312 317 320 324 321 324 321 317 313 310 309 308 305 302 300 298 298 299 299 298 297 295 291 294 295 298 300 304 299 298 291
204 210 210 212 216 221 226 235 249 265 279 292 301 309 315 318 321 318 314 310 307 306 306 306 304 304 301 298 296 294 293 294 291 293 293 289 292 295 294 290 293 299 294
213 218 220 221 223 227 232 239 250 264 279 288 295 306 310 313 319 313 311 307 304 301 302 304 304 302 302 301 300 298 295 291 287 287 288 288 291 292 295 293 287 281 282
218 224 226 225 226 229 233 239 250 264 274 284 295 302 303 311 316 311 309 302 296 297 298 298 299 301 303 302 300 293 288 286 287 284 279 279 280 282 276 276 278 278 279
222 226 225 224 226 228 232 241 253 263 273 285 292 295 301 308 313 307 304 300 296 297 298 297 296 298 300 302 295 292 290 285 281 277 275 276 277 278 279 282 279 281 283
226 229 226 224 226 229 233 241 253 263 276 284 286 292 297 303 307 306 301 301 299 302 303 301 300 299 303 304 298 293 287 288 290 284 279 276 275 275 277 274 277 276 279
232 228 222 222 223 227 234 244 253 265 275 280 284 288 291 293 304 309 299 296 298 303 303 304 305 308 308 308 304 306 305 306 306 301 300 299 291 281 275 272 266 265 271
228 221 218 219 222 228 234 244 256 266 272 277 282 290 290 294 306 303 300 297 301 302 301 304 309 312 311 308 305 304 304 304 307 304 302 297 294 289 287 283 277 273 269
223 218 215 216 222 230 237 247 257 264 266 271 275 283 287 292 299 300 302 302 304 299 303 304 309 313 313 313 313 314 316 314 311 307 303 300 300 299 296 291 286 280 277
219 212 211 215 222 233 242 249 253 256 256 260 267 277 288 295 300 300 303 306 303 307 308 314 318 318 320 319 322 328 327 319 312 305 304 304 303 303 298 296 292 291 286
209 207 210 218 225 233 240 244 249 255 255 258 266 283 285 290 293 297 301 302 306 313 317 313 320 325 328 328 330 331 329 326 320 313 308 307 306 305 302 302 295 293 284
200 205 212 217 224 230 237 247 250 249 253 256 265 269 276 280 286 295 297 299 309 322 312 309 312 317 320 322 326 325 325 324 322 317 312 309 307 305 304 303 296 283 279
205 208 213 218 225 228 234 242 253 254 254 259 261 268 271 275 282 286 291 297 304 313 303 300 300 308 311 315 318 317 317 319 320 318 314 310 307 306 304 300 300 291 282
211 219 221 226 228 229 234 243 249 256 262 268 273 274 276 278 275 279 287 292 300 298 294 291 294 302 305 309 312 312 313 316 319 317 311 308 306 306 305 302 300 297 290
220 229 233 238 240 241 245 250 255 259 264 270 280 281 276 266 273 274 272 275 281 287 288 290 291 297 299 301 303 305 306 308 312 311 310 310 309 311 305 301 299 296 296
236 241 244 246 248 252 253 252 256 259 265 268 266 269 274 284 271 264 267 280 280 282 284 284 291 296 295 296 300 303 305 309 312 310 309 312 311 314 306 303 302 301 300
241 249 250 251 251 255 257 256 259 262 265 267 269 270 266 274 278 261 276 277 280 285 289 291 294 298 298 299 300 301 302 306 313 312 311 315 316 315 312 307 306 305 304
242 249 257 259 261 260 262 265 266 265 266 267 272 276 271 260 260 268 273 277 282 285 288 290 294 296 298 301 303 300 304 314 324 322 316 319 317 317 316 314 313 314 315
245 247 253 260 265 268 273 271 270 268 267 267 270 273 273 268 268 273 277 281 284 285 287 287 292 296 301 305 307 305 305 314 321 326 326 319 319 320 320 318 320 322 326
259 264 266 267 267 270 272 274 274 273 269 269 269 268 268 270 273 277 280 282 284 287 289 291 292 294 300 303 307 311 311 314 319 328 328 316 330 332 331 326 328 331 333
265 272 273 270 272 273 277 278 276 274 271 270 269 268 269 275 279 281 282 283 285 288 290 292 292 296 297 298 304 309 311 308 309 329 326 330 336 345 351 351 351 345 349
280 281 278 272 268 270 275 278 276 274 271 270 269 269 275 278 281 282 283 285 288 290 292 294 294 295 295 294 301 305 307 311 305 326 327 332 341 352 359 5 12 5 4